Location: Boussy-Saint-Antoine
(48.6830°N, 2.5330°E)
Time: 00:28:47
(UTC+02:00)

RS-15 - Visible Passes

Search period start: 23 October 2019 00:00
Search period end: 01 November 2019 23:00
Orbit: 1900 x 2144 km, 64.8° (Epoch: 21 October)

Date Brightness Start Highest point End Pass type
(mag) Time Alt. Az. Time Alt. Az. Time Alt. Az.
23 Oct 8.7 02:12:39 10° NW 02:35:29 - ESE 02:19:38 41° NNW visible
23 Oct 9.0 04:25:21 10° NW 04:43:24 24° S 04:46:59 10° SSE visible
23 Oct 8.5 21:05:11 10° WSW 21:16:01 54° NW 21:26:44 10° NE visible
23 Oct 9.0 23:21:33 10° WNW 23:31:20 34° N 23:36:27 24° NE visible
24 Oct 8.7 01:36:25 10° NW 01:44:08 41° N 01:44:08 41° N visible
24 Oct 9.3 03:49:13 10° NW 04:10:23 13° SSE 04:11:20 10° SSE visible
24 Oct9.506:18:16SW06:18:16SW05:59:30NWvisible
24 Oct 8.3 20:28:37 10° WSW 20:39:41 63° NW 20:50:34 10° NE visible
24 Oct 8.9 22:44:42 10° WNW 22:54:35 35° N 23:01:04 20° NE visible
25 Oct 8.7 01:00:07 10° NW 01:08:46 40° N 01:08:46 40° N visible
25 Oct 9.2 03:13:08 10° NW 03:37:07 - SE 03:16:28 24° NW visible
25 Oct9.705:45:00SSW05:45:00SSW05:24:10NWvisible
25 Oct 8.1 19:52:16 10° SW 20:03:27 74° NW 20:14:27 10° NE visible
25 Oct 8.9 22:07:49 10° W 22:17:51 38° NNW 22:25:47 16° NE visible
26 Oct 8.7 00:23:42 10° NW 00:33:30 38° NNE 00:33:30 38° NNE visible
26 Oct 9.1 02:37:02 10° NW 02:41:12 28° NW 02:41:12 28° NW visible
26 Oct9.805:11:32S05:11:32S04:48:54NWvisible
26 Oct 8.0 19:16:05 10° SW 19:27:19 87° NW 19:38:21 10° NE visible
26 Oct 8.8 21:30:56 10° W 21:41:13 41° NNW 21:50:34 13° NE visible
26 Oct 8.8 23:47:11 10° NW 23:57:04 36° NNE 23:58:17 35° NNE visible
27 Oct 9.0 02:00:55 10° NW 02:05:59 32° NNW 02:05:59 32° NNW visible
27 Oct 9.7 03:13:41 10° NW 03:13:42 10° NW 03:13:42 10° NW visible
27 Oct 8.7 19:54:06 10° W 20:04:39 46° NNW 20:15:06 10° NE visible
27 Oct 8.9 22:10:33 10° WNW 22:20:19 35° N 22:23:06 31° NNE visible
28 Oct 8.9 00:24:46 10° NW 00:30:49 36° NNW 00:30:49 36° NNW visible
28 Oct 9.6 02:37:29 10° NW 02:38:32 14° NW 02:38:32 14° NW visible
28 Oct 8.5 19:17:24 10° WSW 19:28:11 53° NW 19:38:52 10° NE visible
28 Oct 8.9 21:33:48 10° WNW 21:43:33 34° N 21:47:58 26° NE visible
28 Oct 8.8 23:48:33 10° NW 23:55:42 39° N 23:55:42 39° N visible
29 Oct 9.5 02:01:21 10° NW 02:03:25 18° NW 02:03:25 18° NW visible
29 Oct 8.4 18:40:49 10° WSW 18:51:50 62° NW 19:02:42 10° NE visible
29 Oct 8.9 20:56:57 10° WNW 21:06:47 35° N 21:12:53 22° NE visible
29 Oct 8.7 23:12:17 10° NW 23:20:36 40° N 23:20:36 40° N visible
30 Oct 9.3 01:25:15 10° NW 01:28:19 23° NW 01:28:19 23° NW visible
30 Oct 8.2 18:04:25 10° SW 18:15:35 72° NW 18:26:34 10° NE visible
30 Oct 8.9 20:20:03 10° W 20:30:04 37° NNW 20:37:48 17° NE visible
30 Oct 8.7 22:35:53 10° NW 22:45:32 39° NNE 22:45:32 39° NNE visible
31 Oct 9.2 00:49:09 10° NW 00:53:14 28° NW 00:53:14 28° NW visible
31 Oct 8.8 19:43:11 10° W 19:53:25 41° NNW 20:02:45 13° NE visible
31 Oct 8.7 21:59:23 10° NW 22:09:17 36° NNE 22:10:28 35° NNE visible
01 Nov 9.0 00:13:03 10° NW 00:18:12 33° NNW 00:18:12 33° NNW visible
01 Nov 9.8 02:25:49 10° NW 02:25:55 10° NW 02:25:55 10° NW visible
01 Nov 8.7 19:06:20 10° W 19:16:51 45° NNW 19:27:15 10° NE visible
01 Nov 8.8 21:22:46 10° WNW 21:32:32 35° N 21:35:27 31° NNE visible
